Regional Weather Roundup
Issued by NWS Green Bay, WI

Home | Current Version | Previous Version | Text Only | Print | Product List | Glossary On
Versions: 1 2 3 4 5 6 7 8 9 10 11 12 13 14 15 16 17 18 19 20 21 22 23 24 25 26 27 28 29 30 31 32 33 34 35 36 37 38 39 40 41 42 43 44 45 46 47 48 49 50
000
ASUS43 KGRB 280111
RWRGRB

NORTH-CENTRAL AND NORTHEAST WISCONSIN REGIONAL WEATHER ROUNDUP
NATIONAL WEATHER SERVICE GREEN BAY WI
800 PM CDT THU AUG 27 2015

WIZ005-009-010>012-018-019-280200-
NORTH CENTRAL WISCONSIN

CITY           SKY/WX    TMP DP  RH WIND       PRES   REMARKS
IRONWOOD       CLEAR     68  57  68 S3        30.01S
MANITOWISH WTR CLOUDY    62  59  89 CALM      30.06S
ARBOR VITAE    PTCLDY    64  56  75 S3        30.07S
EAGLE RIVER    CLOUDY    65  52  64 CALM      30.07S
LAND O LAKES   MOCLDY    63  55  74 CALM      30.08S
RHINELANDER    PTCLDY    63  56  78 CALM      30.09S
PHILLIPS       CLOUDY    66  59  78 S5        30.06S
ANTIGO         PTCLDY    61  56  83 CALM      30.10S
TOMAHAWK       MOCLDY    62  58  87 CALM      30.09R
MERRILL        CLOUDY    67  58  73 SW3       30.09R
$$

WIZ013-073-280200-
NORTHEAST WISCONSIN

CITY           SKY/WX    TMP DP  RH WIND       PRES   REMARKS
IRON MOUNTAIN  CLEAR     63  57  81 S5        30.07R
MARINETTE      CLEAR     63  54  72 S6        30.08S
OCONTO         CLEAR     63  63 100 S5        30.09R
$$

WIZ017-030-035>037-045-280200-
CENTRAL WISCONSIN

CITY           SKY/WX    TMP DP  RH WIND       PRES   REMARKS
MEDFORD        MOCLDY    64  59  82 S3        30.08S
WAUSAU         CLOUDY    69  58  67 SW3       30.07S
MOSINEE        CLOUDY    66  59  77 S3        30.10R
MARSHFIELD     CLOUDY    67  57  70 SW3       30.09R
WISC RAPIDS    MOCLDY    68  57  68 CALM      30.10R
STEVENS POINT  MOCLDY    64  57  78 CALM      30.09F
WAUPACA        PTCLDY    67  57  68 SE3       30.09S
SHAWANO        CLEAR     67  58  73 S3        30.09S
CLINTONVILLE   MOCLDY    64  55  72 S5        30.08S
WAUTOMA        MOCLDY    70  57  63 CALM      30.09F
$$

WIZ038-039-048-051-280200-
FOX VALLEY

CITY           SKY/WX    TMP DP  RH WIND       PRES   REMARKS
NWS GREEN BAY  CLEAR     65  57  75 S5        30.10R
APPLETON       MOCLDY    66  54  63 S5        30.09R
OSHKOSH        MOCLDY    62  57  83 S3        30.10S
FOND DU LAC    MOCLDY    64  58  80 S5        30.10S
$$

WIZ022-050-052-280200-
EAST CENTRAL WISCONSIN

CITY           SKY/WX    TMP DP  RH WIND       PRES   REMARKS
EPHRAIM        FAIR      59  54  81 S7        30.10S
STURGEON BAY   CLEAR     59  52  77 S7        30.13S
MANITOWOC      PTCLDY    58  54  86 MISG      30.13R
SHEBOYGAN      PTCLDY    61  54  77 S8        30.13R
$$

LMZ563-521-522-541>543-280200-
LAKESHORE

STATION/POSITION TIME  TEMP    WIND        PRES    VSBY  WAVE
                       AIR SEA DIR/SP/G                  HT/PER
                 (UTC) (F)     (DEG/KT/KT) (MB)    (MI)  (FT/S)
SHEBOYGAN LKSHOR 0100   61     200/ 13/ 15 1020.8R
KEWAUNEE LKSHORE 0000   53     170/  9/ 10 1018.4F
ALGOMA MARINA    0014          210/ 11/ 12   N/A
NORTHPORT PIER   0000   62     170/  4/  8 1019.0S
N MID LAKE BUOY  0050   63 64  210/ 16/ 17 1019.1F         2/ 4
S GREEN BAY BUOY 0100   66     170/ 10/ 12 1020.3R
SISTER BAY LKSHO 0019   64     160/ 12/ 14   N/A
CHAMBERS ISLAND  0000   65     140/  5/  9 1018.6F
MENOMINEE LKSHOR 0000   64     150/ 10/ 11 1017.5F
$$



USA.gov is the U.S. government's official web portal to all federal, state and local government web resources and services.